Location: Fours
(44.3167°N, 6.7000°E)
Time: 08:59:56
(UTC+00:00)

Cosmos 1470 Rocket - Visible Passes

Search period start: 14 April 2021 00:00
Search period end: 24 April 2021 00:00
Orbit: 603 x 634 km, 82.5° (Epoch: 13 April)

Date Brightness Start Highest point End Pass type
(mag) Time Alt. Az. Time Alt. Az. Time Alt. Az.
14 Apr 6.2 00:11:07 10° N 00:12:14 18° N 00:12:14 18° N visible
14 Apr 6.5 22:51:53 10° NNE 22:52:12 11° NE 22:52:12 11° NE visible
15 Apr 6.2 00:28:25 10° NNW 00:29:21 16° NNW 00:29:21 16° NNW visible
15 Apr 6.2 23:08:14 10° NNE 23:09:19 16° NNE 23:09:19 16° NNE visible
16 Apr 6.3 00:45:59 10° NNW 00:46:28 12° NNW 00:46:28 12° NNW visible
16 Apr 6.1 23:25:03 10° N 23:26:27 19° N 23:26:27 19° N visible
17 Apr 6.0 23:42:08 10° N 23:43:35 21° N 23:43:35 21° N visible
18 Apr 6.2 22:22:47 10° NNE 22:23:35 13° NE 22:23:35 13° NE visible
18 Apr 6.0 23:59:27 10° NNW 00:00:44 19° NNW 00:00:44 19° NNW visible
19 Apr 6.0 22:39:12 10° NNE 22:40:44 18° NNE 22:40:44 18° NNE visible
20 Apr 6.2 00:17:02 10° NNW 00:17:53 14° NW 00:17:53 14° NW visible
20 Apr 5.7 22:56:03 10° N 22:57:54 23° NNE 22:57:54 23° NNE visible
21 Apr 5.7 23:13:09 10° N 23:15:04 25° N 23:15:04 25° N visible
22 Apr 6.0 21:53:43 10° NNE 21:55:06 14° NE 21:55:06 14° NE visible
22 Apr 5.7 23:30:29 10° NNW 23:32:15 23° NNW 23:32:15 23° NNW visible
23 Apr 5.6 22:10:11 10° NNE 22:12:17 22° NE 22:12:17 22° NE visible
23 Apr 6.0 23:48:05 10° NNW 23:49:26 17° NW 23:49:26 17° NW visible
